This is the latest recevied weather packets stored in our database for station/object K6CED. If no packets are shown the sender has not sent any weather packets the latest 10 day(s).
| Time | Temp. | Humidity | Pressure | Rain* | Wind** | Luminosity | Snow |
|---|---|---|---|---|---|---|---|
| 1787972168 | 27.78° C | 64% | 1014.2 hPa | 0 mm | - | 0 W/m² | - |
| 1787971863 | 28.33° C | 63% | 1014.2 hPa | 0 mm | - | 0 W/m² | - |
| 1787971559 | 28.33° C | 62% | 1014.1 hPa | 0 mm | - | 0 W/m² | - |
| 1787971254 | 28.33° C | 62% | 1013.9 hPa | 0 mm | - | 0 W/m² | - |
| 1787970949 | 28.33° C | 62% | 1013.8 hPa | 0 mm | - | 0 W/m² | - |
| 1787970644 | 28.89° C | 61% | 1013.9 hPa | 0 mm | - | 1 W/m² | - |
| 1787970343 | 28.89° C | 61% | 1013.8 hPa | 0 mm | - | 1 W/m² | - |
| 1787970042 | 28.89° C | 60% | 1013.9 hPa | 0 mm | - | 3 W/m² | - |
| 1787969741 | 29.44° C | 59% | 1014.1 hPa | 0 mm | - | 5 W/m² | - |
| 1787969441 | 29.44° C | 59% | 1014.1 hPa | 0 mm | - | 9 W/m² | - |
| 1787969140 | 29.44° C | 59% | 1013.8 hPa | 0 mm | - | 13 W/m² | - |
| 1787968836 | 29.44° C | 58% | 1014.2 hPa | 0 mm | - | 17 W/m² | - |
| 1787968534 | 30° C | 57% | 1013.8 hPa | 0 mm | - | 21 W/m² | - |
| 1787968230 | 30° C | 57% | 1014.1 hPa | 0 mm | - | 25 W/m² | - |
| 1787967925 | 30.56° C | 56% | 1014.2 hPa | 0 mm | - | 29 W/m² | - |
| 1787967621 | 31.11° C | 55% | 1014.3 hPa | 0 mm | - | 37 W/m² | - |
| 1787967316 | 31.11° C | 55% | 1014.2 hPa | 0 mm | - | 43 W/m² | - |
| 1787967012 | 31.11° C | 53% | 1014.1 hPa | 0 mm | - | 52 W/m² | - |
| 1787966709 | 31.67° C | 52% | 1014.3 hPa | 0 mm | - | 65 W/m² | - |
| 1787966408 | 32.22° C | 52% | 1013.9 hPa | 0 mm | - | 75 W/m² | - |
| 1787966103 | 32.78° C | 50% | 1014.3 hPa | 0 mm | - | 88 W/m² | - |
| 1787965802 | 33.33° C | 48% | 1013.9 hPa | 0 mm | - | 110 W/m² | - |
| 1787965497 | 33.33° C | 49% | 1014.1 hPa | 0 mm | - | 133 W/m² | - |
| 1787965196 | 32.78° C | 49% | 1013.9 hPa | 0 mm | - | 151 W/m² | - |
| 1787964896 | 32.78° C | 49% | 1013.9 hPa | 0 mm | - | 161 W/m² | - |
* Rain latest hour (hover to see other rain measurements)
** Current wind speed in m/s (hover to see current wind gust speed)